{"data":{"norad_id":50846,"epoch":"2026-09-20T00:09:30.388608Z","epoch_age_seconds":90867,"freshness":"FRESH","line1":"1 50846U 22001AV  26263.00660172  .00000945  00000+0  42221-4 0  9991","line2":"2 50846  53.1614  12.0904 0001062  86.5136 273.5986 15.31703239259807","mean_motion":15.31703239,"eccentricity":0.0001062,"inclination_deg":53.1614,"raan_deg":12.0904,"arg_perigee_deg":86.5136,"mean_anomaly_deg":273.5986,"bstar":4.2221e-5,"rev_number":25980,"period_min":94.012989157099,"perigee_km":470.0029902407,"apogee_km":471.45768966371,"semimajor_km":6848.8673399522,"source":"CELESTRAK","updated_at":"2026-09-20T09:00:39.582724Z"}}